WLF1PT EGLL-EGPH

Flight info

Callsign WLF1PT
Flight time 0h 57m
Altitude 32000
Route ULTIB T420 TNT UN57 POL UN601 RIBEL DCT INPIP
Aircraft A359/H-SDE2E3GHIJ3J4J5LM1ORWXY/LB1D1

Departure

Time 2026-04-21 20:57
Airport London Heathrow Airport (EGLL)

Arrival

Time 2026-04-21 21:55
Airport Edinburgh Airport (EGPH)
Time Latitude Longitude Altitude Speed Heading
2026-04-21 20:37 51.47248 -0.48235 92 ft 0 kts 90°
2026-04-21 20:49 51.47248 -0.48236 92 ft 1 kts 90°
2026-04-21 20:49 51.47248 -0.48273 92 ft 4 kts 90°
2026-04-21 20:49 51.47248 -0.48309 95 ft 4 kts 95°
2026-04-21 20:49 51.47257 -0.48343 92 ft 4 kts 147°
2026-04-21 20:50 51.47281 -0.48357 96 ft 4 kts 176°
2026-04-21 20:50 51.47307 -0.48358 96 ft 4 kts 180°
2026-04-21 20:50 51.47321 -0.48358 94 ft 0 kts 180°
2026-04-21 20:53 51.47319 -0.48358 92 ft 1 kts 180°
2026-04-21 20:54 51.47273 -0.48358 97 ft 12 kts 179°
2026-04-21 20:54 51.47179 -0.48357 95 ft 15 kts 180°
2026-04-21 20:54 51.47059 -0.48357 96 ft 19 kts 180°
2026-04-21 20:54 51.46949 -0.48356 92 ft 10 kts 179°
2026-04-21 20:55 51.46885 -0.48414 92 ft 13 kts 236°
2026-04-21 20:55 51.46798 -0.48468 96 ft 16 kts 185°
2026-04-21 20:55 51.46682 -0.48469 92 ft 17 kts 179°
2026-04-21 20:55 51.46563 -0.48469 93 ft 18 kts 180°
2026-04-21 20:56 51.46481 -0.48419 93 ft 10 kts 105°
2026-04-21 20:56 51.46480 -0.48337 95 ft 0 kts 89°
2026-04-21 20:57 51.46483 -0.48016 96 ft 69 kts 89°
2026-04-21 20:57 51.46485 -0.46843 99 ft 138 kts 90°
2026-04-21 20:57 51.46483 -0.45094 467 ft 169 kts 89°
2026-04-21 20:57 51.46480 -0.43008 847 ft 205 kts 89°
2026-04-21 20:58 51.46805 -0.40722 1747 ft 217 kts 64°
2026-04-21 20:58 51.47829 -0.38909 2596 ft 226 kts 41°
2026-04-21 20:58 51.49091 -0.37275 3170 ft 237 kts 46°
2026-04-21 20:58 51.50252 -0.35384 3981 ft 238 kts 51°
2026-04-21 20:59 51.51331 -0.33337 4708 ft 243 kts 58°
2026-04-21 20:59 51.52071 -0.30897 5427 ft 244 kts 71°
2026-04-21 20:59 51.52647 -0.28316 5872 ft 245 kts 73°
2026-04-21 20:59 51.53278 -0.25766 5992 ft 248 kts 64°
2026-04-21 21:00 51.54369 -0.23635 5999 ft 255 kts 41°
2026-04-21 21:00 51.55428 -0.22689 5995 ft 262 kts 24°
2026-04-21 21:00 51.57861 -0.22458 5994 ft 272 kts 356°
2026-04-21 21:00 51.59726 -0.23031 6204 ft 274 kts 353°
2026-04-21 21:01 51.61585 -0.23788 6400 ft 279 kts 344°
2026-04-21 21:01 51.63330 -0.25194 6431 ft 282 kts 333°
2026-04-21 21:01 51.65012 -0.26835 6427 ft 283 kts 333°
2026-04-21 21:01 51.66686 -0.28485 6430 ft 283 kts 333°
2026-04-21 21:02 51.67800 -0.29581 6426 ft 283 kts 333°
2026-04-21 21:02 51.69480 -0.31222 6429 ft 282 kts 333°
2026-04-21 21:02 51.71159 -0.32852 6425 ft 282 kts 333°
2026-04-21 21:02 51.72837 -0.34474 6426 ft 282 kts 333°
2026-04-21 21:03 51.74524 -0.36101 6427 ft 282 kts 333°
2026-04-21 21:03 51.76210 -0.37729 6434 ft 282 kts 333°
2026-04-21 21:03 51.77889 -0.39352 6346 ft 282 kts 333°
2026-04-21 21:03 51.79574 -0.40981 6570 ft 284 kts 333°
2026-04-21 21:04 51.81275 -0.42623 7206 ft 286 kts 333°
2026-04-21 21:04 51.82986 -0.44271 8010 ft 286 kts 333°
2026-04-21 21:04 51.84702 -0.45933 8776 ft 289 kts 333°
2026-04-21 21:04 51.86438 -0.47619 9514 ft 293 kts 332°
2026-04-21 21:05 51.88193 -0.49327 10240 ft 297 kts 332°
2026-04-21 21:05 51.89993 -0.51080 10754 ft 308 kts 332°
2026-04-21 21:05 51.91880 -0.52913 11068 ft 324 kts 332°
2026-04-21 21:05 51.93861 -0.54839 11374 ft 340 kts 332°
2026-04-21 21:06 51.95932 -0.56851 11764 ft 351 kts 331°
2026-04-21 21:06 51.98037 -0.58907 12308 ft 356 kts 331°
2026-04-21 21:06 52.00170 -0.61001 12944 ft 359 kts 331°
2026-04-21 21:06 52.02310 -0.63104 13570 ft 361 kts 331°
2026-04-21 21:07 52.04468 -0.65226 14181 ft 364 kts 331°
2026-04-21 21:07 52.06647 -0.67367 14664 ft 368 kts 330°
2026-04-21 21:07 52.08821 -0.69506 15205 ft 371 kts 330°
2026-04-21 21:07 52.11036 -0.71686 15776 ft 373 kts 330°
2026-04-21 21:08 52.13264 -0.73881 16327 ft 375 kts 330°
2026-04-21 21:08 52.15501 -0.76086 16884 ft 378 kts 330°
2026-04-21 21:08 52.17787 -0.78344 17435 ft 380 kts 330°
2026-04-21 21:08 52.20026 -0.80558 17985 ft 383 kts 330°
2026-04-21 21:09 52.22313 -0.82821 18546 ft 385 kts 330°
2026-04-21 21:09 52.24611 -0.85099 19057 ft 386 kts 330°
2026-04-21 21:09 52.26901 -0.87369 19671 ft 384 kts 329°
2026-04-21 21:09 52.29173 -0.89628 20291 ft 382 kts 329°
2026-04-21 21:10 52.31461 -0.91905 20681 ft 386 kts 330°
2026-04-21 21:10 52.33757 -0.94192 21246 ft 386 kts 329°
2026-04-21 21:10 52.36062 -0.96491 21685 ft 389 kts 329°
2026-04-21 21:10 52.38377 -0.98802 22160 ft 391 kts 329°
2026-04-21 21:11 52.40690 -1.01111 22895 ft 383 kts 328°
2026-04-21 21:11 52.42933 -1.03353 23749 ft 375 kts 328°
2026-04-21 21:11 52.45157 -1.05582 24182 ft 375 kts 327°
2026-04-21 21:11 52.47398 -1.07832 24487 ft 379 kts 327°
2026-04-21 21:12 52.49620 -1.10064 24802 ft 381 kts 327°
2026-04-21 21:12 52.51892 -1.12343 25153 ft 383 kts 327°
2026-04-21 21:12 52.54182 -1.14649 25384 ft 390 kts 327°
2026-04-21 21:12 52.56510 -1.16998 25727 ft 392 kts 327°
2026-04-21 21:13 52.58830 -1.19334 26199 ft 392 kts 327°
2026-04-21 21:13 52.61155 -1.21682 26672 ft 392 kts 327°
2026-04-21 21:13 52.63482 -1.24038 27156 ft 393 kts 327°
2026-04-21 21:13 52.65808 -1.26396 27637 ft 394 kts 327°
2026-04-21 21:14 52.68146 -1.28768 28153 ft 395 kts 327°
2026-04-21 21:14 52.70490 -1.31148 28678 ft 396 kts 327°
2026-04-21 21:14 52.72842 -1.33532 29190 ft 398 kts 327°
2026-04-21 21:14 52.75201 -1.35935 29909 ft 399 kts 326°
2026-04-21 21:15 52.77562 -1.38346 30524 ft 399 kts 326°
2026-04-21 21:15 52.79933 -1.40771 30972 ft 401 kts 326°
2026-04-21 21:15 52.82329 -1.43226 31237 ft 407 kts 326°
2026-04-21 21:15 52.84745 -1.45703 31553 ft 412 kts 326°
2026-04-21 21:16 52.87195 -1.48217 31866 ft 416 kts 326°
2026-04-21 21:16 52.89667 -1.50755 32185 ft 420 kts 326°
2026-04-21 21:16 52.92161 -1.53319 32364 ft 424 kts 326°
2026-04-21 21:16 52.94633 -1.55863 32398 ft 424 kts 326°
2026-04-21 21:17 52.99658 -1.61046 32396 ft 425 kts 326°
2026-04-21 21:17 53.04737 -1.66140 32395 ft 428 kts 330°
2026-04-21 21:18 53.10242 -1.70000 32395 ft 430 kts 336°
2026-04-21 21:18 53.15845 -1.73510 32403 ft 430 kts 336°
2026-04-21 21:19 53.21464 -1.76969 32404 ft 430 kts 336°
2026-04-21 21:19 53.27047 -1.80427 32409 ft 431 kts 337°
2026-04-21 21:20 53.32677 -1.83940 32408 ft 432 kts 336°
2026-04-21 21:20 53.38311 -1.87473 32408 ft 432 kts 336°
2026-04-21 21:21 53.43938 -1.91009 32415 ft 432 kts 336°
2026-04-21 21:21 53.49574 -1.94561 32414 ft 432 kts 336°
2026-04-21 21:22 53.55203 -1.98120 32423 ft 432 kts 336°
2026-04-21 21:22 53.60791 -2.01662 32426 ft 432 kts 336°
2026-04-21 21:23 53.66420 -2.05239 32419 ft 432 kts 336°
2026-04-21 21:23 53.72044 -2.08823 32407 ft 432 kts 336°
2026-04-21 21:24 53.77673 -2.12457 32417 ft 433 kts 335°
2026-04-21 21:24 53.83268 -2.16294 32426 ft 433 kts 335°
2026-04-21 21:25 53.88843 -2.20161 32426 ft 433 kts 335°
2026-04-21 21:25 53.94425 -2.24009 32433 ft 433 kts 335°
2026-04-21 21:26 54.00014 -2.27855 32433 ft 434 kts 335°
2026-04-21 21:26 54.05586 -2.31691 32435 ft 436 kts 335°
2026-04-21 21:27 54.11203 -2.35579 32433 ft 436 kts 335°
2026-04-21 21:27 54.16823 -2.39478 32318 ft 438 kts 335°
2026-04-21 21:28 54.19686 -2.41471 32195 ft 450 kts 335°
2026-04-21 21:28 54.22599 -2.43499 32074 ft 453 kts 335°
2026-04-21 21:28 54.28506 -2.47618 31574 ft 460 kts 335°
2026-04-21 21:29 54.31471 -2.49691 31310 ft 460 kts 335°
2026-04-21 21:29 54.34427 -2.51760 31075 ft 458 kts 335°
2026-04-21 21:29 54.37378 -2.53791 30831 ft 455 kts 337°
2026-04-21 21:29 54.40278 -2.55768 30597 ft 452 kts 337°
2026-04-21 21:30 54.43194 -2.57778 30319 ft 450 kts 336°
2026-04-21 21:30 54.46083 -2.59791 30041 ft 448 kts 336°
2026-04-21 21:30 54.48976 -2.61821 29755 ft 451 kts 337°
2026-04-21 21:30 54.51904 -2.63882 29465 ft 456 kts 337°
2026-04-21 21:31 54.54842 -2.65958 29194 ft 457 kts 337°
2026-04-21 21:31 54.57773 -2.68034 28910 ft 456 kts 337°
2026-04-21 21:31 54.60712 -2.70121 28611 ft 451 kts 336°
2026-04-21 21:31 54.63589 -2.72170 28336 ft 445 kts 336°
2026-04-21 21:32 54.66438 -2.74199 28093 ft 443 kts 336°
2026-04-21 21:32 54.69287 -2.76232 27821 ft 443 kts 337°
2026-04-21 21:32 54.72144 -2.78274 27565 ft 443 kts 337°
2026-04-21 21:32 54.75009 -2.80324 27311 ft 448 kts 338°
2026-04-21 21:33 54.77899 -2.82394 27036 ft 450 kts 338°
2026-04-21 21:33 54.80791 -2.84470 26780 ft 449 kts 338°
2026-04-21 21:33 54.83637 -2.86517 26535 ft 448 kts 338°
2026-04-21 21:33 54.86548 -2.88615 26278 ft 448 kts 338°
2026-04-21 21:34 54.89386 -2.90661 25971 ft 443 kts 338°
2026-04-21 21:34 54.92221 -2.92709 25441 ft 443 kts 338°
2026-04-21 21:34 54.95102 -2.94795 24841 ft 449 kts 338°
2026-04-21 21:34 54.97982 -2.96885 24208 ft 447 kts 339°
2026-04-21 21:35 55.00850 -2.98969 23517 ft 447 kts 339°
2026-04-21 21:35 55.03724 -3.01058 22887 ft 446 kts 339°
2026-04-21 21:35 55.06578 -3.03135 22261 ft 443 kts 339°
2026-04-21 21:35 55.09412 -3.05202 21645 ft 439 kts 339°
2026-04-21 21:36 55.12217 -3.07249 21033 ft 436 kts 339°
2026-04-21 21:36 55.15012 -3.09293 20434 ft 435 kts 339°
2026-04-21 21:36 55.17792 -3.11323 19780 ft 431 kts 339°
2026-04-21 21:36 55.20518 -3.13329 19135 ft 422 kts 339°
2026-04-21 21:37 55.23224 -3.15319 18705 ft 416 kts 339°
2026-04-21 21:37 55.25844 -3.17248 18364 ft 398 kts 340°
2026-04-21 21:37 55.28314 -3.19052 17850 ft 372 kts 341°
2026-04-21 21:37 55.30707 -3.20028 17391 ft 347 kts
2026-04-21 21:38 55.33058 -3.19891 16575 ft 333 kts
2026-04-21 21:38 55.35340 -3.19509 15815 ft 324 kts 10°
2026-04-21 21:38 55.37529 -3.19136 15232 ft 311 kts 10°
2026-04-21 21:38 55.39675 -3.18781 14692 ft 309 kts 10°
2026-04-21 21:39 55.41816 -3.18431 14192 ft 307 kts 10°
2026-04-21 21:39 55.43941 -3.18089 13713 ft 305 kts 10°
2026-04-21 21:39 55.46040 -3.17754 13207 ft 302 kts 10°
2026-04-21 21:39 55.48130 -3.17423 12707 ft 300 kts 10°
2026-04-21 21:40 55.50211 -3.17093 11905 ft 301 kts 10°
2026-04-21 21:40 55.52284 -3.16760 11545 ft 296 kts 10°
2026-04-21 21:40 55.54330 -3.16434 11178 ft 292 kts 10°
2026-04-21 21:40 55.56321 -3.16117 10767 ft 290 kts 10°
2026-04-21 21:41 55.58304 -3.15809 10485 ft 277 kts 10°
2026-04-21 21:41 55.60166 -3.15537 10110 ft 260 kts 11°
2026-04-21 21:41 55.61945 -3.15266 9657 ft 255 kts 11°
2026-04-21 21:41 55.63707 -3.14983 9325 ft 253 kts 11°
2026-04-21 21:42 55.65443 -3.14705 9017 ft 249 kts 11°
2026-04-21 21:42 55.67160 -3.14431 8688 ft 247 kts 11°
2026-04-21 21:42 55.68865 -3.14162 8539 ft 245 kts 12°
2026-04-21 21:42 55.70564 -3.13892 8530 ft 246 kts 12°
2026-04-21 21:43 55.72281 -3.13917 8513 ft 253 kts 354°
2026-04-21 21:43 55.73899 -3.15224 8511 ft 261 kts 327°
2026-04-21 21:43 55.75062 -3.17720 8530 ft 267 kts 300°
2026-04-21 21:43 55.75570 -3.20892 8527 ft 267 kts 279°
2026-04-21 21:44 55.75746 -3.24153 8244 ft 264 kts 276°
2026-04-21 21:44 55.75864 -3.27404 7883 ft 263 kts 275°
2026-04-21 21:44 55.75971 -3.30618 7322 ft 260 kts 275°
2026-04-21 21:44 55.76074 -3.33825 6675 ft 260 kts 275°
2026-04-21 21:45 55.76172 -3.36975 6074 ft 258 kts 275°
2026-04-21 21:45 55.76273 -3.40153 5487 ft 258 kts 275°
2026-04-21 21:45 55.76369 -3.43314 5195 ft 250 kts 275°
2026-04-21 21:45 55.76452 -3.46282 4934 ft 234 kts 275°
2026-04-21 21:46 55.76526 -3.49077 4696 ft 220 kts 275°
2026-04-21 21:46 55.76593 -3.51757 4355 ft 216 kts 275°
2026-04-21 21:46 55.76655 -3.54400 4089 ft 212 kts 275°
2026-04-21 21:46 55.76707 -3.57004 3996 ft 211 kts 275°
2026-04-21 21:47 55.76758 -3.59606 3986 ft 211 kts 275°
2026-04-21 21:47 55.76811 -3.62212 3989 ft 211 kts 275°
2026-04-21 21:47 55.76868 -3.64811 3985 ft 211 kts 275°
2026-04-21 21:47 55.77233 -3.67263 3735 ft 203 kts 308°
2026-04-21 21:48 55.78198 -3.68996 3417 ft 196 kts 332°
2026-04-21 21:48 55.79307 -3.70384 3096 ft 195 kts 335°
2026-04-21 21:48 55.80437 -3.71671 2990 ft 190 kts 342°
2026-04-21 21:48 55.81657 -3.71971 2995 ft 171 kts 20°
2026-04-21 21:49 55.82766 -3.71387 2986 ft 167 kts 29°
2026-04-21 21:49 55.83652 -3.70156 2993 ft 160 kts 56°
2026-04-21 21:49 55.84290 -3.68538 2989 ft 160 kts 62°
2026-04-21 21:49 55.84685 -3.67429 2995 ft 161 kts 62°
2026-04-21 21:50 55.85286 -3.65746 2999 ft 161 kts 62°
2026-04-21 21:50 55.85871 -3.64016 2994 ft 161 kts 63°
2026-04-21 21:50 55.86437 -3.62324 2993 ft 160 kts 63°
2026-04-21 21:50 55.87017 -3.60624 2994 ft 160 kts 62°
2026-04-21 21:51 55.87587 -3.58990 2908 ft 149 kts 62°
2026-04-21 21:51 55.88127 -3.57459 2665 ft 141 kts 63°
2026-04-21 21:51 55.88629 -3.55976 2479 ft 139 kts 63°
2026-04-21 21:51 55.89127 -3.54501 2270 ft 138 kts 63°
2026-04-21 21:52 55.89625 -3.53039 2082 ft 137 kts 63°
2026-04-21 21:52 55.90119 -3.51587 1885 ft 138 kts 63°
2026-04-21 21:52 55.90613 -3.50134 1702 ft 137 kts 63°
2026-04-21 21:52 55.91110 -3.48673 1497 ft 138 kts 62°
2026-04-21 21:53 55.91595 -3.47252 1306 ft 130 kts 63°
2026-04-21 21:53 55.92050 -3.45917 1108 ft 122 kts 63°
2026-04-21 21:53 55.92469 -3.44683 948 ft 115 kts 62°
2026-04-21 21:53 55.92884 -3.43461 796 ft 116 kts 60°
2026-04-21 21:54 55.93301 -3.42235 639 ft 116 kts 61°
2026-04-21 21:54 55.93719 -3.41003 461 ft 117 kts 61°
2026-04-21 21:54 55.94136 -3.39767 291 ft 114 kts 61°
2026-04-21 21:54 55.94552 -3.38555 164 ft 114 kts 57°
2026-04-21 21:55 55.94948 -3.37397 113 ft 92 kts 59°
2026-04-21 21:55 55.95130 -3.36858 117 ft 23 kts 58°
2026-04-21 21:55 55.95222 -3.36590 115 ft 27 kts 58°
2026-04-21 21:55 55.95247 -3.36428 118 ft 9 kts 120°
2026-04-21 21:56 55.95205 -3.36365 116 ft 0 kts 147°
2026-04-21 21:56 55.95177 -3.36337 122 ft 6 kts 152°
2026-04-21 21:56 55.95130 -3.36335 117 ft 8 kts 212°
2026-04-21 21:57 55.95090 -3.36426 122 ft 11 kts 239°
2026-04-21 21:57 55.95047 -3.36549 122 ft 15 kts 238°
2026-04-21 21:57 55.94990 -3.36714 118 ft 15 kts 238°
2026-04-21 21:57 55.94922 -3.36818 121 ft 8 kts 174°
2026-04-21 21:58 55.94872 -3.36794 118 ft 0 kts 168°
2026-04-21 21:58 55.94870 -3.36793 122 ft 1 kts 168°
2026-04-21 21:58 55.94854 -3.36781 122 ft 4 kts 152°
2026-04-21 21:58 55.94828 -3.36722 122 ft 8 kts 122°
2026-04-21 21:59 55.94811 -3.36669 118 ft 3 kts 117°
2026-04-21 21:59 55.94807 -3.36654 123 ft 0 kts 117°
2026-04-21 21:59 55.94807 -3.36653 123 ft 0 kts 117°
2026-04-21 21:59 55.94804 -3.36646 123 ft 1 kts 117°
2026-04-21 22:00 55.94803 -3.36641 123 ft 0 kts 117°